{"data":{"norad_id":46028,"epoch":"2026-05-25T03:16:33.091104Z","epoch_age_seconds":59161,"freshness":"FRESH","line1":"1 46028U 20055B   26145.13649411 -.00000348  00000+0  37325-6 0  9990","line2":"2 46028  53.1587 131.6168 0001410  90.0256 270.0906 15.30186308320605","mean_motion":15.30186308,"eccentricity":0.000141,"inclination_deg":53.1587,"raan_deg":131.6168,"arg_perigee_deg":90.0256,"mean_anomaly_deg":270.0906,"bstar":3.7325e-7,"rev_number":32060,"period_min":94.106187754491,"perigee_km":474.28962316199,"apogee_km":476.22227997433,"semimajor_km":6853.3929515682,"source":"CELESTRAK","updated_at":"2026-05-25T13:38:16.458477Z"}}